Date,TemperatureHighF,TemperatureAvgF,TemperatureLowF,DewpointHighF,DewpointAvgF,DewpointLowF,HumidityHigh,HumidityAvg,HumidityLow,PressureMaxIn,PressureMinIn,WindSpeedMaxMPH,WindSpeedAvgMPH,GustSpeedMaxMPH,PrecipitationSumIn
2013-1-1,27,14,4,-100,-100,-100,0,0,100,0.00,40.00,0,-999,0,0.00
2013-1-2,21,9,1,-100,-100,-100,0,0,100,0.00,40.00,0,-999,0,0.00
2013-1-3,23,8,-4,-100,-100,-100,0,0,100,0.00,40.00,0,-999,0,0.00
2013-1-4,21,8,-2,-100,-100,-100,0,0,100,0.00,40.00,0,-999,0,0.00
2013-1-5,24,7,-44,-100,-100,-100,0,0,100,0.00,40.00,0,-999,0,0.00
2013-1-6,21,14,3,-100,-100,-100,0,0,100,0.00,40.00,0,-999,0,0.00
2013-1-7,21,10,2,-100,-100,-100,0,0,100,0.00,40.00,0,-999,0,0.00
2013-1-8,27,12,5,-100,-100,-100,0,0,100,0.00,40.00,0,-999,0,0.00
2013-1-9,32,14,4,-100,-100,-100,0,0,100,0.00,40.00,0,-999,0,0.00
2013-1-10,44,22,7,-100,-100,-100,0,0,100,0.00,40.00,0,-999,0,0.00
2013-1-11,42,25,9,-100,-100,-100,0,0,100,0.00,40.00,0,-999,0,0.00
2013-1-12,23,10,-1,-100,-100,-100,0,0,100,0.00,40.00,0,-999,0,0.00
2013-1-13,20,9,1,-100,-100,-100,0,0,100,0.00,40.00,0,-999,0,0.00
2013-1-14,16,3,-7,-100,-100,-100,0,0,100,0.00,40.00,0,-999,0,0.00
2013-1-15,24,5,-9,-100,-100,-100,0,0,100,0.00,40.00,0,-999,0,0.00
2013-1-16,17,9,1,-100,-100,-100,0,0,100,0.00,40.00,0,-999,0,0.00
2013-1-17,28,12,3,-100,-100,-100,0,0,100,0.00,40.00,0,-999,0,0.00
2013-1-18,29,13,3,-100,-100,-100,0,0,100,0.00,40.00,0,-999,0,0.00
2013-1-19,29,8,2,-100,-100,-100,0,0,100,0.00,40.00,0,-999,0,0.00
2013-1-20,29,11,1,-100,-100,-100,0,0,100,0.00,40.00,0,-999,0,0.00
2013-1-21,32,20,4,-100,-100,-100,0,0,100,0.00,40.00,0,-999,0,0.00
2013-1-22,32,13,3,-100,-100,-100,0,0,100,0.00,40.00,0,-999,0,0.00
2013-1-23,30,16,3,-100,-100,-100,0,0,100,0.00,40.00,0,-999,0,0.00
2013-1-24,36,26,14,-100,-100,-100,0,0,100,0.00,40.00,0,-999,0,0.00
2013-1-25,39,34,31,-100,-100,-100,0,0,100,0.00,40.00,0,-999,0,0.00
2013-1-26,40,36,34,-100,-100,-100,0,0,100,0.00,40.00,0,-999,0,0.00
2013-1-27,46,38,32,-100,-100,-100,0,0,100,0.00,40.00,0,-999,0,0.00
2013-1-28,40,36,30,-100,-100,-100,0,0,100,0.00,40.00,0,-999,0,0.00
2013-1-29,34,26,22,-100,-100,-100,0,0,100,0.00,40.00,0,-999,0,0.00
2013-1-30,39,29,4,-100,-100,-100,0,0,100,0.00,40.00,0,-999,0,0.00
2013-1-31,43,33,18,-100,-100,-100,0,0,100,0.00,40.00,0,-999,0,0.00
2013-2-1,44,33,21,-100,-100,-100,0,0,100,0.00,40.00,0,-999,0,0.00
2013-2-2,48,34,22,-100,-100,-100,0,0,100,0.00,40.00,0,-999,0,0.00
2013-2-3,43,32,18,-100,-100,-100,0,0,100,0.00,40.00,0,-999,0,0.00
2013-2-4,47,34,22,-100,-100,-100,0,0,100,0.00,40.00,0,-999,0,0.00
2013-2-5,50,35,25,-100,-100,-100,0,0,100,0.00,40.00,0,-999,0,0.00
2013-2-6,50,37,29,-100,-100,-100,0,0,100,0.00,40.00,0,-999,0,0.00
2013-2-7,52,35,25,-100,-100,-100,0,0,100,0.00,40.00,0,-999,0,0.00
2013-2-8,55,45,29,-100,-100,-100,0,0,100,0.00,40.00,0,-999,0,0.00
2013-2-9,45,37,32,-100,-100,-100,0,0,100,0.00,40.00,0,-999,0,0.00
2013-2-10,41,34,30,-100,-100,-100,0,0,100,0.00,40.00,0,-999,0,0.00
2013-2-11,39,31,23,-100,-100,-100,0,0,100,0.00,40.00,0,-999,0,0.00
2013-2-12,41,28,18,-100,-100,-100,0,0,100,0.00,40.00,0,-999,0,0.00
2013-2-13,42,30,21,-100,-100,-100,0,0,100,0.00,40.00,0,-999,0,0.00
2013-2-14,50,36,26,-100,-100,-100,0,0,100,0.00,40.00,0,-999,0,0.00
2013-2-15,50,36,22,-100,-100,-100,0,0,100,0.00,40.00,0,-999,0,0.00
2013-2-16,51,37,26,-100,-100,-100,0,0,100,0.00,40.00,0,-999,0,0.00
2013-2-17,54,39,25,-100,-100,-100,0,0,100,0.00,40.00,0,-999,0,0.00
2013-2-18,45,36,22,-100,-100,-100,0,0,100,0.00,40.00,0,-999,0,0.00
2013-2-19,52,36,14,-100,-100,-100,0,0,100,0.00,40.00,0,-999,0,0.00
2013-2-20,51,39,29,-100,-100,-100,0,0,100,0.00,40.00,0,-999,0,0.00
2013-2-21,47,40,36,-100,-100,-100,0,0,100,0.00,40.00,0,-999,0,0.00
2013-2-22,41,33,29,-100,-100,-100,0,0,100,0.00,40.00,0,-999,0,0.00
2013-2-23,43,30,21,-100,-100,-100,0,0,100,0.00,40.00,0,-999,0,0.00
2013-2-24,37,30,18,-100,-100,-100,0,0,100,0.00,40.00,0,-999,0,0.00
2013-2-25,40,30,21,-100,-100,-100,0,0,100,0.00,40.00,0,-999,0,0.00
2013-2-26,35,31,27,-100,-100,-100,0,0,100,0.00,40.00,0,-999,0,0.00
2013-2-27,43,30,21,-100,-100,-100,0,0,100,0.00,40.00,0,-999,0,0.00
2013-2-28,46,31,21,-100,-100,-100,0,0,100,0.00,40.00,0,-999,0,0.00
2013-3-1,54,37,29,-100,-100,-100,0,0,100,0.00,40.00,0,-999,0,0.00
2013-3-2,60,41,29,-100,-100,-100,0,0,100,0.00,40.00,0,-999,0,0.00
2013-3-3,58,43,32,-100,-100,-100,0,0,100,0.00,40.00,0,-999,0,0.00
2013-3-4,56,44,28,-100,-100,-100,0,0,100,0.00,40.00,0,-999,0,0.00
2013-3-5,53,39,21,-100,-100,-100,0,0,100,0.00,40.00,0,-999,0,0.00
2013-3-6,65,44,25,-100,-100,-100,0,0,100,0.00,40.00,0,-999,0,0.00
2013-3-7,66,50,32,-100,-100,-100,0,0,100,0.00,40.00,0,-999,0,0.00
2013-3-8,55,44,36,-100,-100,-100,0,0,100,0.00,40.00,0,-999,0,0.00
2013-3-9,43,36,29,-100,-100,-100,0,0,100,0.00,40.00,0,-999,0,0.00
2013-3-10,53,42,18,-100,-100,-100,0,0,100,0.00,40.00,0,-999,0,0.00
2013-3-11,57,43,29,-100,-100,-100,0,0,100,0.00,40.00,0,-999,0,0.00
2013-3-12,62,50,37,-100,-100,-100,0,0,100,0.00,40.00,0,-999,0,0.00
2013-3-13,69,49,33,-100,-100,-100,0,0,100,0.00,40.00,0,-999,0,0.00
2013-3-14,73,53,36,-100,-100,-100,0,0,100,0.00,40.00,0,-999,0,0.00
2013-3-15,72,55,40,-100,-100,-100,0,0,100,0.00,40.00,0,-999,0,0.00
2013-3-16,65,56,44,-100,-100,-100,0,0,100,0.00,40.00,0,-999,0,0.00
2013-3-17,63,50,43,-100,-100,-100,0,0,100,0.00,40.00,0,-999,0,0.00
2013-3-18,58,46,34,-100,-100,-100,0,0,100,0.00,40.00,0,-999,0,0.00
2013-3-19,62,46,37,-100,-100,-100,0,0,100,0.00,40.00,0,-999,0,0.00
2013-3-20,58,48,35,-100,-100,-100,0,0,100,0.00,40.00,0,-999,0,0.00
2013-3-21,57,48,40,-100,-100,-100,0,0,100,0.00,40.00,0,-999,0,0.00
2013-3-22,56,43,32,-100,-100,-100,0,0,100,0.00,40.00,0,-999,0,0.00
2013-3-23,41,34,19,-100,-100,-100,0,0,100,0.00,40.00,0,-999,0,0.00
2013-3-24,44,33,19,-100,-100,-100,0,0,100,0.00,40.00,0,-999,0,0.00
2013-3-25,51,37,25,-100,-100,-100,0,0,100,0.00,40.00,0,-999,0,0.00
2013-3-26,64,44,21,-100,-100,-100,0,0,100,0.00,40.00,0,-999,0,0.00
2013-3-27,72,54,37,-100,-100,-100,0,0,100,0.00,40.00,0,-999,0,0.00
2013-3-28,73,58,46,-100,-100,-100,0,0,100,0.00,40.00,0,-999,0,0.00
2013-3-29,76,56,42,-100,-100,-100,0,0,100,0.00,40.00,0,-999,0,0.00
2013-3-30,73,56,34,-100,-100,-100,0,0,100,0.00,40.00,0,-999,0,0.00
2013-3-31,75,57,29,-100,-100,-100,0,0,100,0.00,40.00,0,-999,0,0.00
2013-4-1,70,57,51,-100,-100,-100,0,0,100,0.00,40.00,0,-999,0,0.00
2013-4-2,58,48,34,-100,-100,-100,0,0,100,0.00,40.00,0,-999,0,0.00
2013-4-3,68,53,38,-100,-100,-100,0,0,100,0.00,40.00,0,-999,0,0.00
2013-4-4,73,56,40,-100,-100,-100,0,0,100,0.00,40.00,0,-999,0,0.00
2013-4-5,73,60,37,-100,-100,-100,0,0,100,0.00,40.00,0,-999,0,0.00
2013-4-6,70,59,42,-100,-100,-100,0,0,100,0.00,40.00,0,-999,0,0.00
2013-4-7,72,58,38,-100,-100,-100,0,0,100,0.00,40.00,0,-999,0,0.00
2013-4-8,69,54,48,-100,-100,-100,0,0,100,0.00,40.00,0,-999,0,0.00
2013-4-9,47,39,29,-100,-100,-100,0,0,100,0.00,40.00,0,-999,0,0.00
2013-4-10,52,36,27,-100,-100,-100,0,0,100,0.00,40.00,0,-999,0,0.00
2013-4-11,60,45,37,-100,-100,-100,0,0,100,0.00,40.00,0,-999,0,0.00
2013-4-12,70,52,38,-100,-100,-100,0,0,100,0.00,40.00,0,-999,0,0.00
2013-4-13,73,54,36,-100,-100,-100,0,0,100,0.00,40.00,0,-999,0,0.00
2013-4-14,61,51,39,-100,-100,-100,0,0,100,0.00,40.00,0,-999,0,0.00
2013-4-15,52,44,36,-100,-100,-100,0,0,100,0.00,40.00,0,-999,0,0.00
2013-4-16,53,42,32,-100,-100,-100,0,0,100,0.00,40.00,0,-999,0,0.00
2013-4-17,42,35,29,-100,-100,-100,0,0,100,0.00,40.00,0,-999,0,0.00
2013-4-18,45,36,26,-100,-100,-100,0,0,100,0.00,40.00,0,-999,0,0.00
2013-4-19,58,43,15,-100,-100,-100,0,0,100,0.00,40.00,0,-999,0,0.00
2013-4-20,62,53,47,-100,-100,-100,0,0,100,0.00,40.00,0,-999,0,0.00
2013-4-21,68,54,38,-100,-100,-100,0,0,100,0.00,40.00,0,-999,0,0.00
2013-4-22,71,58,47,-100,-100,-100,0,0,100,0.00,40.00,0,-999,0,0.00
2013-4-23,56,48,37,-100,-100,-100,0,0,100,0.00,40.00,0,-999,0,0.00
2013-4-24,64,52,41,-100,-100,-100,0,0,100,0.00,40.00,0,-999,0,0.00
2013-4-25,73,56,41,-100,-100,-100,0,0,100,0.00,40.00,0,-999,0,0.00
2013-4-26,75,59,43,-100,-100,-100,0,0,100,0.00,40.00,0,-999,0,0.00
2013-4-27,79,63,43,-100,-100,-100,0,0,100,0.00,40.00,0,-999,0,0.00
2013-4-28,83,65,42,-100,-100,-100,0,0,100,0.00,40.00,0,-999,0,0.00
2013-4-29,82,68,47,-100,-100,-100,0,0,100,0.00,40.00,0,-999,0,0.00
2013-4-30,83,68,48,-100,-100,-100,0,0,100,0.00,40.00,0,-999,0,0.00
2013-5-1,62,49,41,-100,-100,-100,0,0,100,0.00,40.00,0,-999,0,0.00
2013-5-2,64,51,37,-100,-100,-100,0,0,100,0.00,40.00,0,-999,0,0.00
2013-5-3,73,53,39,-100,-100,-100,0,0,100,0.00,40.00,0,-999,0,0.00
2013-5-4,77,59,42,-100,-100,-100,0,0,100,0.00,40.00,0,-999,0,0.00
2013-5-5,79,67,57,-100,-100,-100,0,0,100,0.00,40.00,0,-999,0,0.00
2013-5-6,68,62,54,-100,-100,-100,0,0,100,0.00,40.00,0,-999,0,0.00
2013-5-7,63,54,47,-100,-100,-100,0,0,100,0.00,40.00,0,-999,0,0.00
2013-5-8,57,52,45,-100,-100,-100,0,0,100,0.00,40.00,0,-999,0,0.00
2013-5-9,69,58,49,-100,-100,-100,0,0,100,0.00,40.00,0,-999,0,0.00
2013-5-10,77,62,43,-100,-100,-100,0,0,100,0.00,40.00,0,-999,0,0.00
2013-5-11,81,64,46,-100,-100,-100,0,0,100,0.00,40.00,0,-999,0,0.00
2013-5-12,87,69,47,-100,-100,-100,0,0,100,0.00,40.00,0,-999,0,0.00
2013-5-13,90,73,55,-100,-100,-100,0,0,100,0.00,40.00,0,-999,0,0.00
2013-5-14,89,72,55,-100,-100,-100,0,0,100,0.00,40.00,0,-999,0,0.00
2013-5-15,87,73,63,-100,-100,-100,0,0,100,0.00,40.00,0,-999,0,0.00
2013-5-16,85,71,56,-100,-100,-100,0,0,100,0.00,40.00,0,-999,0,0.00
2013-5-17,83,72,57,-100,-100,-100,0,0,100,0.00,40.00,0,-999,0,0.00
2013-5-18,72,66,55,-100,-100,-100,0,0,100,0.00,40.00,0,-999,0,0.00
2013-5-19,72,60,42,-100,-100,-100,0,0,100,0.00,40.00,0,-999,0,0.00
2013-5-20,67,58,46,-100,-100,-100,0,0,100,0.00,40.00,0,-999,0,0.00
2013-5-21,78,64,46,-100,-100,-100,0,0,100,0.00,40.00,0,-999,0,0.00
2013-5-22,87,72,54,-100,-100,-100,0,0,100,0.00,40.00,0,-999,0,0.00
2013-5-23,89,77,65,-100,-100,-100,0,0,100,0.00,40.00,0,-999,0,0.00
2013-5-24,87,73,56,-100,-100,-100,0,0,100,0.00,40.00,0,-999,0,0.00
2013-5-25,90,72,51,-100,-100,-100,0,0,100,0.00,40.00,0,-999,0,0.00
2013-5-26,90,73,49,-100,-100,-100,0,0,100,0.00,40.00,0,-999,0,0.00
2013-5-27,86,72,51,-100,-100,-100,0,0,100,0.00,40.00,0,-999,0,0.00
2013-5-28,80,67,58,-100,-100,-100,0,0,100,0.00,40.00,0,-999,0,0.00
2013-5-29,73,62,49,-100,-100,-100,0,0,100,0.00,40.00,0,-999,0,0.00
2013-5-30,79,65,48,-100,-100,-100,0,0,100,0.00,40.00,0,-999,0,0.00
2013-5-31,80,66,58,-100,-100,-100,0,0,100,0.00,40.00,0,-999,0,0.00
2013-6-1,82,67,47,-100,-100,-100,0,0,100,0.00,40.00,0,-999,0,0.00
2013-6-2,94,74,54,-100,-100,-100,0,0,100,0.00,40.00,0,-999,0,0.00
2013-6-3,94,76,54,-100,-100,-100,0,0,100,0.00,40.00,0,-999,0,0.00
2013-6-4,91,74,33,-100,-100,-100,0,0,100,0.00,40.00,0,-999,0,0.00
2013-6-5,89,74,50,-100,-100,-100,0,0,100,0.00,40.00,0,-999,0,0.00
2013-6-6,92,75,60,-100,-100,-100,0,0,100,0.00,40.00,0,-999,0,0.00
2013-6-7,95,79,62,-100,-100,-100,0,0,100,0.00,40.00,0,-999,0,0.00
2013-6-8,98,82,58,-100,-100,-100,0,0,100,0.00,40.00,0,-999,0,0.00
2013-6-9,101,82,63,-100,-100,-100,0,0,100,0.00,40.00,0,-999,0,0.00
2013-6-10,101,84,65,-100,-100,-100,0,0,100,0.00,40.00,0,-999,0,0.00
2013-6-11,93,82,61,-100,-100,-100,0,0,100,0.00,40.00,0,-999,0,0.00
2013-6-12,98,79,63,-100,-100,-100,0,0,100,0.00,40.00,0,-999,0,0.00
2013-6-13,97,82,69,-100,-100,-100,0,0,100,0.00,40.00,0,-999,0,0.00
2013-6-14,94,77,56,-100,-100,-100,0,0,100,0.00,40.00,0,-999,0,0.00
2013-6-15,94,76,56,-100,-100,-100,0,0,100,0.00,40.00,0,-999,0,0.00
2013-6-16,92,80,67,-100,-100,-100,0,0,100,0.00,40.00,0,-999,0,0.00
2013-6-17,95,82,63,-100,-100,-100,0,0,100,0.00,40.00,0,-999,0,0.00
2013-6-18,96,82,65,-100,-100,-100,0,0,100,0.00,40.00,0,-999,0,0.00
2013-6-19,96,83,62,-100,-100,-100,0,0,100,0.00,40.00,0,-999,0,0.00
2013-6-20,88,68,52,-100,-100,-100,0,0,100,0.00,40.00,0,-999,0,0.00
2013-6-22,93,88,76,-100,-100,-100,0,0,100,0.00,40.00,0,-999,0,0.00
2013-6-23,94,78,55,-100,-100,-100,0,0,100,0.00,40.00,0,-999,0,0.00
2013-6-24,90,80,59,-100,-100,-100,0,0,100,0.00,40.00,0,-999,0,0.00
2013-6-25,93,80,62,-100,-100,-100,0,0,100,0.00,40.00,0,-999,0,0.00
2013-6-26,101,83,63,-100,-100,-100,0,0,100,0.00,40.00,0,-999,0,0.00
2013-6-27,105,88,65,-100,-100,-100,0,0,100,0.00,40.00,0,-999,0,0.00
2013-6-28,107,83,65,-100,-100,-100,0,0,100,0.00,40.00,0,-999,0,0.00
2013-6-29,105,88,72,-100,-100,-100,0,0,100,0.00,40.00,0,-999,0,0.00
2013-6-30,99,84,67,-100,-100,-100,0,0,100,0.00,40.00,0,-999,0,0.00
2013-7-1,103,84,69,-100,-100,-100,0,0,100,0.00,40.00,0,-999,0,0.00
2013-7-2,100,86,70,-100,-100,-100,0,0,100,0.00,40.00,0,-999,0,0.00
2013-7-3,102,84,65,-100,-100,-100,0,0,100,0.00,40.00,0,-999,0,0.00
2013-7-4,96,81,72,-100,-100,-100,0,0,100,0.00,40.00,0,-999,0,0.00
2013-7-5,101,88,70,-100,-100,-100,0,0,100,0.00,40.00,0,-999,0,0.00
2013-7-6,98,82,67,-100,-100,-100,0,0,100,0.00,40.00,0,-999,0,0.00
2013-7-7,98,82,69,-100,-100,-100,0,0,100,0.00,40.00,0,-999,0,0.00
2013-7-8,99,75,63,-100,-100,-100,0,0,100,0.00,40.00,0,-999,0,0.00
2013-7-9,102,84,68,-100,-100,-100,0,0,100,0.00,40.00,0,-999,0,0.00
2013-7-10,103,90,69,-100,-100,-100,0,0,100,0.00,40.00,0,-999,0,0.00
2013-7-11,103,76,65,-100,-100,-100,0,0,100,0.00,40.00,0,-999,0,0.00
2013-7-12,92,78,65,-100,-100,-100,0,0,100,0.00,40.00,0,-999,0,0.00
2013-7-13,94,82,69,-100,-100,-100,0,0,100,0.00,40.00,0,-999,0,0.00
2013-7-14,93,82,71,-100,-100,-100,0,0,100,0.00,40.00,0,-999,0,0.00
2013-7-15,98,83,73,-100,-100,-100,0,0,100,0.00,40.00,0,-999,0,0.00
2013-7-16,93,80,67,-100,-100,-100,0,0,100,0.00,40.00,0,-999,0,0.00
2013-7-17,94,80,66,-100,-100,-100,0,0,100,0.00,40.00,0,-999,0,0.00
2013-7-18,98,81,66,-100,-100,-100,0,0,100,0.00,40.00,0,-999,0,0.00
2013-7-19,97,80,69,-100,-100,-100,0,0,100,0.00,40.00,0,-999,0,0.00
2013-7-20,98,86,73,-100,-100,-100,0,0,100,0.00,40.00,0,-999,0,0.00
2013-7-21,80,73,67,-100,-100,-100,0,0,100,0.00,40.00,0,-999,0,0.00
2013-7-22,99,85,72,-100,-100,-100,0,0,100,0.00,40.00,0,-999,0,0.00
2013-7-23,102,81,65,-100,-100,-100,0,0,100,0.00,40.00,0,-999,0,0.00
2013-7-24,93,81,69,-100,-100,-100,0,0,100,0.00,40.00,0,-999,0,0.00
2013-7-25,98,83,67,-100,-100,-100,0,0,100,0.00,40.00,0,-999,0,0.00
2013-7-26,99,84,74,-100,-100,-100,0,0,100,0.00,40.00,0,-999,0,0.00
2013-7-27,93,76,68,-100,-100,-100,0,0,100,0.00,40.00,0,-999,0,0.00
2013-7-28,87,74,65,-100,-100,-100,0,0,100,0.00,40.00,0,-999,0,0.00
2013-7-29,83,73,62,-100,-100,-100,0,0,100,0.00,40.00,0,-999,0,0.00
2013-7-30,91,75,61,-100,-100,-100,0,0,100,0.00,40.00,0,-999,0,0.00
2013-7-31,97,82,69,-100,-100,-100,0,0,100,0.00,40.00,0,-999,0,0.00
2013-8-1,78,71,67,-100,-100,-100,0,0,100,0.00,40.00,0,-999,0,0.00
2013-8-2,86,71,62,-100,-100,-100,0,0,100,0.00,40.00,0,-999,0,0.00
2013-8-3,90,79,67,-100,-100,-100,0,0,100,0.00,40.00,0,-999,0,0.00
2013-8-4,84,75,67,-100,-100,-100,0,0,100,0.00,40.00,0,-999,0,0.00
2013-8-5,89,76,69,-100,-100,-100,0,0,100,0.00,40.00,0,-999,0,0.00
2013-8-6,86,75,70,-100,-100,-100,0,0,100,0.00,40.00,0,-999,0,0.00
2013-8-7,87,73,62,-100,-100,-100,0,0,100,0.00,40.00,0,-999,0,0.00
2013-8-8,88,73,65,-100,-100,-100,0,0,100,0.00,40.00,0,-999,0,0.00
2013-8-9,89,74,61,-100,-100,-100,0,0,100,0.00,40.00,0,-999,0,0.00
2013-8-10,82,71,61,-100,-100,-100,0,0,100,0.00,40.00,0,-999,0,0.00
2013-8-11,91,72,58,-100,-100,-100,0,0,100,0.00,40.00,0,-999,0,0.00
2013-8-12,87,74,64,-100,-100,-100,0,0,100,0.00,40.00,0,-999,0,0.00
2013-8-13,93,75,62,-100,-100,-100,0,0,100,0.00,40.00,0,-999,0,0.00
2013-8-14,95,78,66,-100,-100,-100,0,0,100,0.00,40.00,0,-999,0,0.00
2013-8-15,98,78,66,-100,-100,-100,0,0,100,0.00,40.00,0,-999,0,0.00
2013-8-16,98,78,64,-100,-100,-100,0,0,100,0.00,40.00,0,-999,0,0.00
2013-8-17,96,78,62,-100,-100,-100,0,0,100,0.00,40.00,0,-999,0,0.00
2013-8-18,96,79,61,-100,-100,-100,0,0,100,0.00,40.00,0,-999,0,0.00
2013-8-19,102,83,69,-100,-100,-100,0,0,100,0.00,40.00,0,-999,0,0.00
2013-8-20,90,80,67,-100,-100,-100,0,0,100,0.00,40.00,0,-999,0,0.00
2013-8-21,97,82,67,-100,-100,-100,0,0,100,0.00,40.00,0,-999,0,0.00
2013-8-22,93,80,71,-100,-100,-100,0,0,100,0.00,40.00,0,-999,0,0.00
2013-8-23,91,75,66,-100,-100,-100,0,0,100,0.00,40.00,0,-999,0,0.00
2013-8-24,87,75,67,-100,-100,-100,0,0,100,0.00,40.00,0,-999,0,0.00
2013-8-25,73,67,64,-100,-100,-100,0,0,100,0.00,40.00,0,-999,0,0.00
2013-8-26,83,71,64,-100,-100,-100,0,0,100,0.00,40.00,0,-999,0,0.00
2013-8-27,80,70,65,-100,-100,-100,0,0,100,0.00,40.00,0,-999,0,0.00
2013-8-28,91,83,75,-100,-100,-100,0,0,100,0.00,40.00,0,-999,0,0.00
2013-8-29,98,86,64,-100,-100,-100,0,0,100,0.00,40.00,0,-999,0,0.00
2013-8-30,100,84,72,-100,-100,-100,0,0,100,0.00,40.00,0,-999,0,0.00
2013-8-31,94,83,73,-100,-100,-100,0,0,100,0.00,40.00,0,-999,0,0.00
2013-9-1,94,80,71,-100,-100,-100,0,0,100,0.00,40.00,0,-999,0,0.00
2013-9-2,94,82,69,-100,-100,-100,0,0,100,0.00,40.00,0,-999,0,0.00
2013-9-3,95,78,65,-100,-100,-100,0,0,100,0.00,40.00,0,-999,0,0.00
2013-9-4,97,82,70,-100,-100,-100,0,0,100,0.00,40.00,0,-999,0,0.00
2013-9-5,99,83,71,-100,-100,-100,0,0,100,0.00,40.00,0,-999,0,0.00
2013-9-6,99,85,72,-100,-100,-100,0,0,100,0.00,40.00,0,-999,0,0.00
2013-9-7,96,84,74,-100,-100,-100,0,0,100,0.00,40.00,0,-999,0,0.00
2013-9-8,83,74,68,-100,-100,-100,0,0,100,0.00,40.00,0,-999,0,0.00
2013-9-9,68,64,60,-100,-100,-100,0,0,100,0.00,40.00,0,-999,0,0.00
2013-9-10,66,64,62,-100,-100,-100,0,0,100,0.00,40.00,0,-999,0,0.00
2013-9-11,76,68,64,-100,-100,-100,0,0,100,0.00,40.00,0,-999,0,0.00
2013-9-12,77,69,62,-100,-100,-100,0,0,100,0.00,40.00,0,-999,0,0.00
2013-9-13,81,72,64,-100,-100,-100,0,0,100,0.00,40.00,0,-999,0,0.00
2013-9-14,73,66,61,-100,-100,-100,0,0,100,0.00,40.00,0,-999,0,0.00
2013-9-15,80,67,59,-100,-100,-100,0,0,100,0.00,40.00,0,-999,0,0.00
2013-9-16,86,72,62,-100,-100,-100,0,0,100,0.00,40.00,0,-999,0,0.00
2013-9-17,78,70,62,-100,-100,-100,0,0,100,0.00,40.00,0,-999,0,0.00
2013-9-18,73,66,62,-100,-100,-100,0,0,100,0.00,40.00,0,-999,0,0.00
2013-9-19,80,66,56,-100,-100,-100,0,0,100,0.00,40.00,0,-999,0,0.00
2013-9-20,85,66,54,-100,-100,-100,0,0,100,0.00,40.00,0,-999,0,0.00
2013-9-21,89,71,58,-100,-100,-100,0,0,100,0.00,40.00,0,-999,0,0.00
2013-9-22,73,66,54,-100,-100,-100,0,0,100,0.00,40.00,0,-999,0,0.00
2013-9-23,73,62,51,-100,-100,-100,0,0,100,0.00,40.00,0,-999,0,0.00
2013-9-24,79,59,52,-100,-100,-100,0,0,100,0.00,40.00,0,-999,0,0.00
2013-9-25,83,70,52,-100,-100,-100,0,0,100,0.00,40.00,0,-999,0,0.00
2013-9-26,80,72,58,-100,-100,-100,0,0,100,0.00,40.00,0,-999,0,0.00
2013-9-27,62,56,47,-100,-100,-100,0,0,100,0.00,40.00,0,-999,0,0.00
2013-9-28,65,52,41,-100,-100,-100,0,0,100,0.00,40.00,0,-999,0,0.00
2013-9-29,74,56,40,-100,-100,-100,0,0,100,0.00,40.00,0,-999,0,0.00
2013-9-30,81,64,44,-100,-100,-100,0,0,100,0.00,40.00,0,-999,0,0.00
2013-10-1,83,69,57,-100,-100,-100,0,0,100,0.00,40.00,0,-999,0,0.00
2013-10-2,82,65,46,-100,-100,-100,0,0,100,0.00,40.00,0,-999,0,0.00
2013-10-3,77,59,41,-100,-100,-100,0,0,100,0.00,40.00,0,-999,0,0.00
2013-10-4,52,43,38,-100,-100,-100,0,0,100,0.00,40.00,0,-999,0,0.00
2013-10-5,58,46,40,-100,-100,-100,0,0,100,0.00,40.00,0,-999,0,0.00
2013-10-6,66,53,41,-100,-100,-100,0,0,100,0.00,40.00,0,-999,0,0.00
2013-10-7,70,54,40,-100,-100,-100,0,0,100,0.00,40.00,0,-999,0,0.00
2013-10-8,77,59,43,-100,-100,-100,0,0,100,0.00,40.00,0,-999,0,0.00
2013-10-9,73,62,46,-100,-100,-100,0,0,100,0.00,40.00,0,-999,0,0.00
2013-10-10,63,53,48,-100,-100,-100,0,0,100,0.00,40.00,0,-999,0,0.00
2013-10-11,62,52,47,-100,-100,-100,0,0,100,0.00,40.00,0,-999,0,0.00
2013-10-12,67,54,44,-100,-100,-100,0,0,100,0.00,40.00,0,-999,0,0.00
2013-10-13,73,59,47,-100,-100,-100,0,0,100,0.00,40.00,0,-999,0,0.00
2013-10-14,58,52,47,-100,-100,-100,0,0,100,0.00,40.00,0,-999,0,0.00
2013-10-15,56,48,42,-100,-100,-100,0,0,100,0.00,40.00,0,-999,0,0.00
2013-10-16,58,48,34,-100,-100,-100,0,0,100,0.00,40.00,0,-999,0,0.00
2013-10-17,64,48,36,-100,-100,-100,0,0,100,0.00,40.00,0,-999,0,0.00
2013-10-18,59,48,36,-100,-100,-100,0,0,100,0.00,40.00,0,-999,0,0.00
2013-10-19,63,48,35,-100,-100,-100,0,0,100,0.00,40.00,0,-999,0,0.00
2013-10-20,63,47,36,-100,-100,-100,0,0,100,0.00,40.00,0,-999,0,0.00
2013-10-21,69,50,35,-100,-100,-100,0,0,100,0.00,40.00,0,-999,0,0.00
2013-10-22,69,48,40,-100,-100,-100,0,0,100,0.00,40.00,0,-999,0,0.00
2013-10-23,71,52,37,-100,-100,-100,0,0,100,0.00,40.00,0,-999,0,0.00
2013-10-24,73,53,40,-100,-100,-100,0,0,100,0.00,40.00,0,-999,0,0.00
2013-10-25,70,52,38,-100,-100,-100,0,0,100,0.00,40.00,0,-999,0,0.00
2013-10-26,73,55,39,-100,-100,-100,0,0,100,0.00,40.00,0,-999,0,0.00
2013-10-27,69,52,36,-100,-100,-100,0,0,100,0.00,40.00,0,-999,0,0.00
2013-10-28,70,62,47,-100,-100,-100,0,0,100,0.00,40.00,0,-999,0,0.00
2013-10-29,62,51,43,-100,-100,-100,0,0,100,0.00,40.00,0,-999,0,0.00
2013-10-30,51,44,41,-100,-100,-100,0,0,100,0.00,40.00,0,-999,0,0.00
2013-10-31,54,45,38,-100,-100,-100,0,0,100,0.00,40.00,0,-999,0,0.00
2013-11-1,63,47,36,-100,-100,-100,0,0,100,0.00,40.00,0,-999,0,0.00
2013-11-2,59,46,38,-100,-100,-100,0,0,100,0.00,40.00,0,-999,0,0.00
2013-11-3,64,47,33,-100,-100,-100,0,0,100,0.00,40.00,0,-999,0,0.00
2013-11-4,47,39,33,-100,-100,-100,0,0,100,0.00,40.00,0,-999,0,0.00
2013-11-5,49,39,29,-100,-100,-100,0,0,100,0.00,40.00,0,-999,0,0.00
2013-11-6,51,36,29,-100,-100,-100,0,0,100,0.00,40.00,0,-999,0,0.00
2013-11-7,56,44,29,-100,-100,-100,0,0,100,0.00,40.00,0,-999,0,0.00
2013-11-8,62,46,31,-100,-100,-100,0,0,100,0.00,40.00,0,-999,0,0.00
2013-11-9,62,47,31,-100,-100,-100,0,0,100,0.00,40.00,0,-999,0,0.00
2013-11-10,65,48,32,-100,-100,-100,0,0,100,0.00,40.00,0,-999,0,0.00
2013-11-11,66,47,29,-100,-100,-100,0,0,100,0.00,40.00,0,-999,0,0.00
2013-11-12,69,48,31,-100,-100,-100,0,0,100,0.00,40.00,0,-999,0,0.00
2013-11-13,58,42,30,-100,-100,-100,0,0,100,0.00,40.00,0,-999,0,0.00
2013-11-14,62,46,32,-100,-100,-100,0,0,100,0.00,40.00,0,-999,0,0.00
2013-11-15,60,40,29,-100,-100,-100,0,0,100,0.00,40.00,0,-999,0,0.00
2013-11-16,50,40,32,-100,-100,-100,0,0,100,0.00,40.00,0,-999,0,0.00
2013-11-17,60,43,32,-100,-100,-100,0,0,100,0.00,40.00,0,-999,0,0.00
2013-11-18,61,42,29,-100,-100,-100,0,0,100,0.00,40.00,0,-999,0,0.00
2013-11-19,51,39,29,-100,-100,-100,0,0,100,0.00,40.00,0,-999,0,0.00
2013-11-20,52,43,32,-100,-100,-100,0,0,100,0.00,40.00,0,-999,0,0.00
2013-11-21,50,44,38,-100,-100,-100,0,0,100,0.00,40.00,0,-999,0,0.00
2013-11-22,40,37,35,-100,-100,-100,0,0,100,0.00,40.00,0,-999,0,0.00
2013-11-23,41,38,35,-100,-100,-100,0,0,100,0.00,40.00,0,-999,0,0.00
2013-11-24,42,39,36,-100,-100,-100,0,0,100,0.00,40.00,0,-999,0,0.00
2013-11-25,51,40,32,-100,-100,-100,0,0,100,0.00,40.00,0,-999,0,0.00
2013-11-26,52,37,29,-100,-100,-100,0,0,100,0.00,40.00,0,-999,0,0.00
2013-11-27,49,35,26,-100,-100,-100,0,0,100,0.00,40.00,0,-999,0,0.00
2013-11-28,44,38,32,-100,-100,-100,0,0,100,0.00,40.00,0,-999,0,0.00
2013-11-29,40,38,36,-100,-100,-100,0,0,100,0.00,40.00,0,-999,0,0.00
2013-11-30,43,39,37,-100,-100,-100,0,0,100,0.00,40.00,0,-999,0,0.00
2013-12-1,41,39,37,-100,-100,-100,0,0,100,0.00,40.00,0,-999,0,0.00
2013-12-2,39,37,35,-100,-100,-100,0,0,100,0.00,40.00,0,-999,0,0.00
2013-12-3,43,38,32,-100,-100,-100,0,0,100,0.00,40.00,0,-999,0,0.00
2013-12-4,32,22,7,-100,-100,-100,0,0,100,0.00,40.00,0,-999,0,0.00
2013-12-5,20,12,3,-100,-100,-100,0,0,100,0.00,40.00,0,-999,0,0.00
2013-12-6,18,13,7,-100,-100,-100,0,0,100,0.00,40.00,0,-999,0,0.00
2013-12-7,27,21,11,-100,-100,-100,0,0,100,0.00,40.00,0,-999,0,0.00
2013-12-8,27,19,2,-100,-100,-100,0,0,100,0.00,40.00,0,-999,0,0.00
2013-12-9,21,10,1,-100,-100,-100,0,0,100,0.00,40.00,0,-999,0,0.00
2013-12-10,20,7,-3,-100,-100,-100,0,0,100,0.00,40.00,0,-999,0,0.00
2013-12-11,25,13,4,-100,-100,-100,0,0,100,0.00,40.00,0,-999,0,0.00
2013-12-12,25,10,2,-100,-100,-100,0,0,100,0.00,40.00,0,-999,0,0.00
2013-12-13,21,12,3,-100,-100,-100,0,0,100,0.00,40.00,0,-999,0,0.00
2013-12-14,28,12,3,-100,-100,-100,0,0,100,0.00,40.00,0,-999,0,0.00
2013-12-15,36,17,7,-100,-100,-100,0,0,100,0.00,40.00,0,-999,0,0.00
2013-12-16,33,21,9,-100,-100,-100,0,0,100,0.00,40.00,0,-999,0,0.00
2013-12-17,36,20,10,-100,-100,-100,0,0,100,0.00,40.00,0,-999,0,0.00
2013-12-18,31,22,12,-100,-100,-100,0,0,100,0.00,40.00,0,-999,0,0.00
2013-12-19,39,28,21,-100,-100,-100,0,0,100,0.00,40.00,0,-999,0,0.00
2013-12-20,38,30,25,-100,-100,-100,0,0,100,0.00,40.00,0,-999,0,0.00
2013-12-21,32,25,17,-100,-100,-100,0,0,100,0.00,40.00,0,-999,0,0.00
2013-12-22,29,21,15,-100,-100,-100,0,0,100,0.00,40.00,0,-999,0,0.00
2013-12-23,40,25,14,-100,-100,-100,0,0,100,0.00,40.00,0,-999,0,0.00
2013-12-24,36,25,16,-100,-100,-100,0,0,100,0.00,40.00,0,-999,0,0.00
2013-12-25,39,24,10,-100,-100,-100,0,0,100,0.00,40.00,0,-999,0,0.00
2013-12-26,36,20,9,-100,-100,-100,0,0,100,0.00,40.00,0,-999,0,0.00
2013-12-27,37,24,10,-100,-100,-100,0,0,100,0.00,40.00,0,-999,0,0.00
2013-12-28,32,21,13,-100,-100,-100,0,0,100,0.00,40.00,0,-999,0,0.00
2013-12-29,43,24,14,-100,-100,-100,0,0,100,0.00,40.00,0,-999,0,0.00
2013-12-30,40,24,13,-100,-100,-100,0,0,100,0.00,40.00,0,-999,0,0.00
2013-12-31,40,28,18,-100,-100,-100,0,0,100,0.00,40.00,0,-999,0,0.00
2014-1-1,42,28,21,-100,-100,-100,0,0,100,0.00,40.00,0,-999,0,0.00
2014-1-2,43,26,14,-100,-100,-100,0,0,100,0.00,40.00,0,-999,0,0.00